This demonstration page uses our WeatherBlox Daily Observations layout. Learn more.

Left ArrowRight Arrow

Hourly Observations for July 8, 2016

Temp ( °F °C ) Dew Point ( °F °C ) Humidity (%) Winds ( mph kmh ) Pressure ( in mb ) Visibility ( mi km ) Precip ( " mm )
12:40 am 00:40 Cloudy with Light Rain 76 24.4 74 23.3 94 94 NW 12 19 29.85 1011 4 6 0.27 6.86
12:59 am 00:59 Cloudy with Light Rain 76 24.4 74 23.3 94 94 NNW 10 17 29.84 1011 4 6 0.30 7.62
1:59 am 01:59 Cloudy with Light Rain 77 25 74 23.3 90 90 NNE 3 6 29.80 1009 8 13 0.06 1.52
2:59 am 02:59 Cloudy 76 24.4 75 23.9 97 97 SW 6 9 29.82 1010 9 14 0.00 0.03
3:59 am 03:59 Mostly Cloudy 76 24.4 74 23.3 94 94 WSW 7 11 29.81 1010 10 16 0.00 0.00
4:59 am 04:59 Cloudy 75 23.9 73 22.8 94 94 SW 7 11 29.81 1010 9 14 0.00 0.00
5:10 am 05:10 Cloudy 75 23.9 73 22.8 94 94 SW 7 11 29.83 1010 9 14 0.00 0.00
5:59 am 05:59 Cloudy 76 24.4 73 22.8 91 91 WSW 8 13 29.83 1010 10 16 0.00 0.00
6:34 am 06:34 Cloudy 76 24.4 73 22.8 91 91 W 6 9 29.83 1010 8 13 0.00 0.00
6:36 am 06:36 Mostly Cloudy 76 24.4 73 22.8 91 91 W 6 9 29.83 1010 8 13 0.00 0.00
6:59 am 06:59 Mostly Cloudy 77 25 73 22.8 88 88 W 10 17 29.85 1011 9 14 0.00 0.00
7:59 am 07:59 Mostly Cloudy 77 25 73 22.8 88 88 W 13 20 29.85 1011 7 11 0.00 0.00
8:59 am 08:59 Partly Cloudy 79 26.1 74 23.3 85 85 W 8 13 29.85 1011 8 13 0.00 0.00
9:59 am 09:59 Mostly Sunny 82 27.8 74 23.3 77 77 W 10 17 29.86 1011 9 14 0.00 0.00
10:59 am 10:59 Partly Cloudy 85 29.4 74 23.3 70 70 W 9 15 29.87 1012 10 16 0.00 0.00
11:59 am 11:59 Mostly Sunny 87 30.6 72 22.2 61 61 WNW 8 13 29.86 1011 10 16 0.00 0.00
12:59 pm 12:59 Partly Cloudy 88 31.1 72 22.2 59 59 WSW 7 11 29.85 1011 10 16 0.00 0.00
1:59 pm 13:59 Partly Cloudy 90 32.2 71 21.7 54 54 SW 7 11 29.84 1011 9 14 0.00 0.00
2:59 pm 14:59 Partly Cloudy 90 32.2 72 22.2 56 56 VRB 6 9 29.84 1010 10 16 0.00 0.00
3:59 pm 15:59 Partly Cloudy 91 32.8 72 22.2 54 54 WSW 12 19 29.83 1010 10 16 0.00 0.00
4:59 pm 16:59 Partly Cloudy 91 32.8 73 22.8 56 56 WSW 8 13 29.81 1010 10 16 0.00 0.00
5:59 pm 17:59 Partly Cloudy 90 32.2 73 22.8 58 58 SW 8 13 29.80 1009 9 14 0.00 0.00
6:47 pm 18:47 Partly Cloudy with Thunderstorms 89 31.7 74 23.3 61 61 VRB 5 7 29.83 1010 9 14 0.00 0.00
6:59 pm 18:59 Partly Cloudy with Thunderstorms 89 31.7 75 23.9 63 63 SSW 3 6 29.81 1009 9 14 0.00 0.00
7:51 pm 19:51 Mostly Cloudy 86 30 75 23.9 70 70 SSE 6 9 29.80 1009 9 14 0.00 0.00
7:59 pm 19:59 Mostly Cloudy 86 30 75 23.9 70 70 SSE 3 6 29.81 1010 9 14 0.00 0.00
8:11 pm 20:11 Mostly Cloudy with Thunderstorms 85 29.4 75 23.9 72 72 S 5 7 29.83 1010 9 14 0.00 0.00
8:43 pm 20:43 Mostly Cloudy with Thunderstorms 79 26.1 74 23.3 85 85 N 6 9 29.83 1010 2 3 0.06 1.52
8:46 pm 20:46 Mostly Cloudy with Strong Thunderstorms 78 25.6 73 22.8 85 85 N 6 9 29.83 1010 2 2 0.08 2.03
8:53 pm 20:53 Mostly Cloudy with Strong Thunderstorms 79 26 70 21 74 74 WNW 30 48 29.88 1012 1 2 0.11 2.79
8:59 pm 20:59 Mostly Cloudy with Strong Thunderstorms 77 25 68 20 74 74 SE 15 24 29.83 1010 1 2 0.15 3.81
9:14 pm 21:14 Mostly Cloudy with Thunderstorms 77 25 72 22.2 85 85 SW 6 9 29.83 1010 10 16 0.05 1.27
9:57 pm 21:57 Mostly Cloudy 79 26 75 24 89 89 SSW 6 9 29.83 1010 8 13 0.14 3.56
9:59 pm 21:59 Mostly Cloudy 80 26.7 76 24.4 87 87 SSW 6 9 29.83 1010 8 13 0.15 3.81
10:59 pm 22:59 Mostly Cloudy 82 27.8 75 23.9 79 79 SW 7 11 29.82 1010 9 14 0.00 0.00
11:59 pm 23:59 Mostly Cloudy 81 27.2 73 22.8 77 77 SW 8 13 29.81 1010 9 14 0.00 0.00

Powered by AerisWeather